Location: Mt. Bigelow
(32.4165°N, 110.7345°W)
Time: 06:58:41
(UTC-07:00)

N. Korean satellite - Pass Details

Date: 20 February 2019
Orbit: 455 x 511 km, 97.2° (Epoch: 18 March)

Event Time Altitude Azimuth Distance (km) Brightness Sun altitude
Rises 05:30:10 0° 38° (NE) 2,477 10.7 -19.8°
Reaches altitude 10° 05:33:37 10° 77° (ENE) 1,590 10.3 -19.1°
Maximum altitude 05:34:36 11° 93° (E) 1,528 10.3 -18.9°
Drops below altitude 10° 05:35:35 10° 110° (ESE) 1,585 10.2 -18.7°
Sets 05:38:59 0° 148° (SSE) 2,450 10.6 -17.9°
